Flag for U.S.A. Weather past 2 weeks in Scranton, Pennsylvania, U.S.A.

Now
60 °F

Clear.


Feels Like: 60 °F
Forecast: 40 / 66 °F
Wind: 13 mph from Northeast

Location: Barre - Scranton - Wilkes-Barre / Scranton International Airport

Current Time: Apr 18, 2015 at 10:24:05 PM

Latest Report: Apr 18, 2015 at 9:54 PM


Visibility: 10 mi

Pressure: 30.07 "Hg

Humidity: 26%

Dew point: 25 °F

Location of ScrantonLocation

Historic Weather in Scranton — Graph

°F

Scranton temperature yesterday

Maximum temperature yesterday: 68 °F (at 5:54 PM)
Minimum temperature yesterday: 53 °F (at 7:54 AM)
Average temperature yesterday: 59 °F

Past Weeks' High & Low Weather Summary

 TemperatureHumidityPressure
High80 °F (Apr 18, 2:54 PM)93% (Apr 3, 8:57 PM)30.45 "Hg (Apr 3, 8:57 PM)
Low29 °F (Apr 12, 6:54 AM)16% (Apr 12, 5:54 PM)29.55 "Hg (Apr 4, 1:01 AM)
Average51 °F58%30.12 "Hg
* Reported Apr 3 8:57 PM — Apr 18 8:54 PM, Scranton, Weather by CustomWeather, © 2015

Note: Actual official high and low records may vary slightly from our data, if they occured in-between our weather recording intervals... More about our weather records

Advertising

Scranton weather history for previous 24 hours

 ConditionsComfort  
Time TempWeatherWind HumidityBarometerVisibility
8:54 PM
Sat, Apr 18
62 °FClear.15 mph24%30.04 "Hg10 mi
7:54 PM65 °FSunny.16 mph32%30.00 "Hg10 mi
6:54 PM72 °FSunny.20 mph30%29.96 "Hg10 mi
5:54 PM77 °FSunny.18 mph22%29.90 "Hg10 mi
4:54 PM80 °FPassing clouds.18 mph20%29.88 "Hg10 mi
3:54 PM80 °FSunny.20 mph20%29.87 "Hg10 mi
2:54 PM80 °FPassing clouds.12 mph22%29.88 "Hg10 mi
1:54 PM74 °FScattered clouds.10 mph29%29.90 "Hg10 mi
12:54 PM74 °FPartly sunny.13 mph29%29.92 "Hg10 mi
11:54 AM70 °FSunny.9 mph34%29.96 "Hg10 mi
10:54 AM66 °FSunny.8 mph40%29.99 "Hg10 mi
9:54 AM61 °FSunny.5 mph60%30.01 "Hg9 mi
8:54 AM53 °FSunny.3 mph80%30.01 "Hg7 mi
7:54 AM51 °FSunny.No wind83%30.01 "Hg6 mi
6:54 AM43 °FFog.No wind93%30.01 "Hg5 mi
5:54 AM44 °FClear.3 mph89%29.99 "Hg8 mi
4:54 AM47 °FClear.5 mph86%29.98 "Hg9 mi
3:54 AM48 °FClear.5 mph86%29.98 "Hg9 mi
2:54 AM50 °FClear.6 mph83%29.98 "Hg10 mi
1:54 AM51 °FClear.5 mph83%29.99 "Hg10 mi
12:54 AM54 °FClear.6 mph77%29.99 "Hg10 mi
11:54 PM
Fri, Apr 17
55 °FPassing clouds.7 mph80%30.00 "Hg10 mi
10:54 PM57 °FClear.5 mph74%29.99 "Hg10 mi
Weather by CustomWeather, © 2015

See weather overviewHow to use our weather pages